map of VAN home
Great Circle Mapper logo
VAN - Airport
Location
City:  Van, Van, Turkey
Name:Van Ferit Melen Airport
ICAO:LTCI
IATA:VAN

Details
Type:Airport (Aerodrome, Airfield)
Use:Public/Civil
Latitude:3828'06"N (38.468219)
Longitude:4319'56"E (43.332300)
Datum:WGS 1984
Elevation:5480 ft (1670 m)
Variation:5.65E (WMM2015 magnetic declination)
0.08 annual change
Runways:1
Longest:9022 × 148 ft (2750 × 45 m), paved

Time
Time Zone:UTC+2 (DST+3)
Local Time:

Weather
METAR:LTCI 310320Z 04007KT 8000 TSRA SCT020CB SCT030 10/07 Q1016 BECMG TL0420 NSW RMK RWY21 07004KT 030V100

Related Locations
Nearby:
Farthest:GMR: 11365 mi / 18290 km
Mangareva [Totegegie], Gambier Islands, PF

Find:

   beyond  
but within

Other Information
Maps:
NOTAMs:
Links:
Sources:

  
flag of Turkey   

Sectional Chart

Flight Planning
at skyvector.com

Satellite Image

Google Maps Satellite view

 

Copyright © 2004-2016 Karl L. Swartz. All rights reserved.
The Great Circle Mapper name and logo are trademarks of the Great Circle Mapper.
All other trademarks mentioned herein belong to their respective owners.
Please see credits for attibutions and further copyright information.

  Follow gcmap on Facebook Follow gcmap on Twitter Follow gcmap on Google+ GCmap on LinkedIn

hCard Microformat

Geo Microformat